{"data":{"norad_id":39624,"epoch":"2026-05-25T04:03:18.290016Z","epoch_age_seconds":54235,"freshness":"FRESH","line1":"1 39624U 14014A   26145.16896169  .00000439  00000+0  96703-4 0  9992","line2":"2 39624  97.9493 172.8048 0015216  61.5365 298.7368 14.61826895647334","mean_motion":14.61826895,"eccentricity":0.0015216,"inclination_deg":97.9493,"raan_deg":172.8048,"arg_perigee_deg":61.5365,"mean_anomaly_deg":298.7368,"bstar":9.6703e-5,"rev_number":64733,"period_min":98.506875535355,"perigee_km":676.53051448073,"apogee_km":698.03199531404,"semimajor_km":7065.4182548974,"source":"CELESTRAK","updated_at":"2026-05-25T13:37:55.434635Z"}}